• în Republica Moldova
  • Lista ţărilor
  • Pe 7 zile
  • Temperatura apei
  • Hartă satelitară
  • Meteo pe hartă
  • Widget-uri
  • user-avatar
    Intrare

    Meteo pe oră la Brisbane

    Astăzi, 23 Februarie, Joi

    Timp Temperatura Precipitaţii Vânt Presiune Umiditate
    00:00 +21°C° 0 mm 4 m/s 762 mmHg 85%
    01:00 +20°C° 0 mm 4 m/s 762 mmHg 87%
    02:00 +20°C° 0 mm 4 m/s 762 mmHg 88%
    03:00 +20°C° 0 mm 4 m/s 762 mmHg 88%
    04:00 +20°C° 0 mm 4 m/s 762 mmHg 87%
    05:00 +21°C° 0 mm 4 m/s 762 mmHg 83%
    06:00 +21°C° 0 mm 4 m/s 762 mmHg 79%
    07:00 +22°C° 0 mm 4 m/s 762 mmHg 75%
    08:00 +25°C° 0 mm 5 m/s 762 mmHg 66%
    09:00 +27°C° 0 mm 5 m/s 762 mmHg 58%
    10:00 +30°C° 0 mm 5 m/s 762 mmHg 48%
    11:00 +32°C° 0 mm 5 m/s 762 mmHg 46%
    12:00 +33°C° 0 mm 5 m/s 761 mmHg 43%
    13:00 +34°C° 0 mm 6 m/s 761 mmHg 41%
    14:00 +33°C° 0 mm 6 m/s 761 mmHg 44%
    15:00 +32°C° 0 mm 6 m/s 761 mmHg 48%
    16:00 +32°C° 0 mm 6 m/s 761 mmHg 50%
    17:00 +29°C° 0 mm 5 m/s 761 mmHg 57%
    18:00 +27°C° 0 mm 5 m/s 761 mmHg 64%
    19:00 +25°C° 0 mm 4 m/s 762 mmHg 72%
    20:00 +23°C° 0 mm 4 m/s 762 mmHg 76%
    21:00 +22°C° 0 mm 4 m/s 762 mmHg 81%
    22:00 +21°C° 0 mm 4 m/s 762 mmHg 85%
    23:00 +21°C° 0 mm 3 m/s 762 mmHg 86%

    Mâine, 24 Februarie, Vineri

    Timp Temperatura Precipitaţii Vânt Presiune Umiditate
    00:00 +21°C° 0 mm 3 m/s 762 mmHg 88%
    01:00 +20°C° 0 mm 3 m/s 761 mmHg 89%
    02:00 +20°C° 0 mm 3 m/s 761 mmHg 89%
    03:00 +20°C° 0 mm 3 m/s 761 mmHg 90%
    04:00 +19°C° 0 mm 3 m/s 761 mmHg 90%
    05:00 +20°C° 0 mm 3 m/s 761 mmHg 86%
    06:00 +21°C° 0 mm 3 m/s 761 mmHg 83%
    07:00 +22°C° 0 mm 4 m/s 762 mmHg 79%
    08:00 +25°C° 0 mm 4 m/s 762 mmHg 69%
    09:00 +27°C° 0 mm 4 m/s 761 mmHg 60%
    10:00 +30°C° 0 mm 5 m/s 761 mmHg 51%
    11:00 +32°C° 0 mm 5 m/s 761 mmHg 47%
    12:00 +33°C° 0 mm 5 m/s 761 mmHg 44%
    13:00 +34°C° 0 mm 5 m/s 760 mmHg 40%
    14:00 +33°C° 0 mm 6 m/s 760 mmHg 43%
    15:00 +33°C° 0 mm 6 m/s 760 mmHg 46%
    16:00 +32°C° 0 mm 6 m/s 759 mmHg 48%
    17:00 +29°C° 0 mm 6 m/s 760 mmHg 57%
    18:00 +27°C° 0 mm 5 m/s 760 mmHg 65%
    19:00 +23°C° 0 mm 4 m/s 760 mmHg 73%
    20:00 +23°C° 0 mm 4 m/s 760 mmHg 78%
    21:00 +22°C° 0 mm 4 m/s 761 mmHg 82%
    22:00 +21°C° 0 mm 3 m/s 761 mmHg 86%
    23:00 +20°C° 0 mm 3 m/s 761 mmHg 87%

    Poimâine, 25 Februarie, Sâmbătă

    Timp Temperatura Precipitaţii Vânt Presiune Umiditate
    00:00 +20°C° 0 mm 3 m/s 760 mmHg 88%
    01:00 +20°C° 0 mm 3 m/s 760 mmHg 89%
    02:00 +19°C° 0 mm 3 m/s 760 mmHg 90%
    03:00 +19°C° 0 mm 3 m/s 760 mmHg 91%
    04:00 +19°C° 0 mm 3 m/s 759 mmHg 91%
    05:00 +19°C° 0 mm 4 m/s 760 mmHg 87%
    06:00 +20°C° 0 mm 4 m/s 760 mmHg 83%
    07:00 +21°C° 0 mm 5 m/s 760 mmHg 79%
    08:00 +25°C° 0 mm 5 m/s 760 mmHg 70%
    09:00 +27°C° 0 mm 5 m/s 760 mmHg 60%
    10:00 +30°C° 0 mm 6 m/s 760 mmHg 51%
    11:00 +32°C° 0 mm 6 m/s 760 mmHg 50%
    12:00 +32°C° 0 mm 7 m/s 759 mmHg 49%
    13:00 +33°C° 0 mm 7 m/s 759 mmHg 48%
    14:00 +32°C° 0,1 mm 7 m/s 758 mmHg 50%
    15:00 +32°C° 0,1 mm 7 m/s 758 mmHg 53%
    16:00 +32°C° 0,1 mm 7 m/s 758 mmHg 55%
    17:00 +29°C° 0 mm 7 m/s 758 mmHg 62%
    18:00 +27°C° 0 mm 6 m/s 759 mmHg 69%
    19:00 +25°C° 0 mm 5 m/s 759 mmHg 76%
    20:00 +25°C° 0 mm 5 m/s 759 mmHg 80%
    21:00 +23°C° 0 mm 5 m/s 760 mmHg 85%
    22:00 +22°C° 0 mm 4 m/s 760 mmHg 89%
    23:00 +22°C° 0,2 mm 4 m/s 760 mmHg 89%

    26 Februarie, Duminică

    Timp Temperatura Precipitaţii Vânt Presiune Umiditate
    00:00 +21°C° 0,2 mm 4 m/s 759 mmHg 90%
    01:00 +21°C° 0,2 mm 4 m/s 759 mmHg 90%
    02:00 +21°C° 0 mm 4 m/s 759 mmHg 90%
    03:00 +21°C° 0 mm 4 m/s 758 mmHg 90%
    04:00 +21°C° 0 mm 4 m/s 758 mmHg 90%
    05:00 +21°C° 0 mm 4 m/s 759 mmHg 87%
    06:00 +22°C° 0 mm 5 m/s 759 mmHg 84%
    07:00 +23°C° 0 mm 5 m/s 760 mmHg 80%
    08:00 +26°C° 0,1 mm 5 m/s 760 mmHg 73%
    09:00 +28°C° 0,1 mm 5 m/s 760 mmHg 66%
    10:00 +30°C° 0,1 mm 6 m/s 760 mmHg 58%
    11:00 +30°C° 0,1 mm 6 m/s 760 mmHg 57%
    12:00 +30°C° 0,1 mm 6 m/s 759 mmHg 55%
    13:00 +32°C° 0,1 mm 6 m/s 759 mmHg 53%
    14:00 +32°C° 0,2 mm 6 m/s 759 mmHg 55%
    15:00 +30°C° 0,2 mm 6 m/s 759 mmHg 56%
    16:00 +30°C° 0,2 mm 6 m/s 758 mmHg 57%
    17:00 +29°C° 0,1 mm 5 m/s 759 mmHg 64%
    18:00 +27°C° 0,1 mm 5 m/s 760 mmHg 71%
    19:00 +25°C° 0,1 mm 4 m/s 760 mmHg 78%
    20:00 +25°C° 0,1 mm 4 m/s 760 mmHg 81%
    21:00 +23°C° 0,1 mm 4 m/s 761 mmHg 84%
    22:00 +23°C° 0,1 mm 4 m/s 761 mmHg 87%
    23:00 +22°C° 0,8 mm 4 m/s 761 mmHg 89%

    27 Februarie, Luni

    Timp Temperatura Precipitaţii Vânt Presiune Umiditate
    00:00 +22°C° 0,8 mm 3 m/s 761 mmHg 91%
    01:00 +21°C° 0,8 mm 3 m/s 761 mmHg 93%
    02:00 +21°C° 0,2 mm 3 m/s 761 mmHg 94%
    03:00 +21°C° 0,2 mm 3 m/s 760 mmHg 94%
    04:00 +20°C° 0,2 mm 3 m/s 760 mmHg 94%
    05:00 +21°C° 0,2 mm 4 m/s 761 mmHg 92%
    06:00 +22°C° 0,2 mm 4 m/s 761 mmHg 89%
    07:00 +22°C° 0,2 mm 5 m/s 762 mmHg 87%
    08:00 +25°C° 0,2 mm 5 m/s 762 mmHg 77%
    09:00 +27°C° 0,2 mm 5 m/s 762 mmHg 67%
    10:00 +29°C° 0,2 mm 5 m/s 762 mmHg 57%
    11:00 +30°C° 0 mm 5 m/s 762 mmHg 54%
    12:00 +32°C° 0 mm 6 m/s 761 mmHg 51%
    13:00 +32°C° 0 mm 6 m/s 761 mmHg 49%
    14:00 +32°C° 0,1 mm 6 m/s 761 mmHg 52%
    15:00 +30°C° 0,1 mm 7 m/s 760 mmHg 54%
    16:00 +29°C° 0,1 mm 7 m/s 760 mmHg 57%
    17:00 +28°C° 0,4 mm 6 m/s 761 mmHg 64%
    18:00 +26°C° 0,4 mm 5 m/s 761 mmHg 71%
    19:00 +25°C° 0,4 mm 5 m/s 762 mmHg 78%
    20:00 +23°C° 0,4 mm 4 m/s 762 mmHg 81%
    21:00 +23°C° 0,4 mm 4 m/s 762 mmHg 84%
    22:00 +22°C° 0,4 mm 4 m/s 762 mmHg 87%
    23:00 +22°C° 1,6 mm 4 m/s 762 mmHg 88%

    28 Februarie, Marţi

    Timp Temperatura Precipitaţii Vânt Presiune Umiditate
    00:00 +22°C° 1,6 mm 4 m/s 762 mmHg 90%
    01:00 +21°C° 1,6 mm 4 m/s 761 mmHg 91%
    02:00 +21°C° 1 mm 4 m/s 761 mmHg 91%
    03:00 +21°C° 1 mm 4 m/s 761 mmHg 91%
    04:00 +21°C° 1 mm 4 m/s 761 mmHg 92%
    05:00 +22°C° 1,2 mm 4 m/s 762 mmHg 91%
    06:00 +22°C° 1,2 mm 4 m/s 762 mmHg 90%
    07:00 +22°C° 1,2 mm 4 m/s 763 mmHg 90%
    08:00 +23°C° 0,7 mm 4 m/s 763 mmHg 86%
    09:00 +23°C° 0,7 mm 4 m/s 763 mmHg 83%
    10:00 +25°C° 0,7 mm 5 m/s 763 mmHg 79%
    11:00 +26°C° 0,3 mm 5 m/s 762 mmHg 73%
    12:00 +27°C° 0,3 mm 5 m/s 762 mmHg 67%
    13:00 +28°C° 0,3 mm 6 m/s 761 mmHg 60%
    14:00 +28°C° 0,3 mm 6 m/s 761 mmHg 60%
    15:00 +28°C° 0,3 mm 6 m/s 761 mmHg 61%
    16:00 +28°C° 0,3 mm 6 m/s 761 mmHg 61%
    17:00 +27°C° 0,5 mm 6 m/s 761 mmHg 68%
    18:00 +25°C° 0,5 mm 5 m/s 762 mmHg 76%
    19:00 +23°C° 0,5 mm 5 m/s 762 mmHg 83%
    20:00 +23°C° 1,4 mm 5 m/s 762 mmHg 85%
    21:00 +23°C° 1,4 mm 5 m/s 762 mmHg 87%
    22:00 +22°C° 1,4 mm 5 m/s 762 mmHg 89%
    23:00 +22°C° 0,6 mm 4 m/s 762 mmHg 90%
    Arată mai mult